Weather History for Buffalo, WY

Change the Weather History Date:

Wednesday, October 16, 2013

  Actual Average Record
Temperature  
Mean Temperature 41 °F 46 °F  
Max Temperature 53 °F 58 °F 72 °F (2005)
Min Temperature 28 °F 34 °F 24 °F (1999)
Degree Days  
Heating Degree Days 24 19  
Month to date heating degree days 344 269  
Since 1 July heating degree days 496 583  
Cooling Degree Days 0 0  
Month to date cooling degree days 0 0  
Year to date cooling degree days 709 491  
Moisture  
Dew Point 19 °F    
Average Humidity 55    
Maximum Humidity 89    
Minimum Humidity 21    
Precipitation  
Precipitation T in 0.04 in 0.49 in (1998)
Month to date precipitation 1.88 0.64  
Year to date precipitation 9.64 12.22  
Sea Level Pressure  
Sea Level Pressure 30.07 in    
Wind  
Wind Speed 12 mph (WNW)    
Max Wind Speed 33 mph    
Max Gust Speed 43 mph    
Visibility 10 miles    
Events      
T = Trace of Precipitation, MM = Missing Value Source: NWS Daily Summary

Daily Weather History Graph

Daily Weather History Graph

Search for Another Location

Airport:

Trip Planner

Search our weather history database for the weather conditions in past years. The results will help you decide how hot, cold, wet, or windy it might be!

Date:

Astronomy

Oct. 16, 2013 Rise Set
Actual Time 7:23 AM MDT 6:20 PM MDT
Civil Twilight 6:54 AM MDT 6:49 PM MDT
Nautical Twilight 6:20 AM MDT 7:23 PM MDT
Astronomical Twilight 5:46 AM MDT 7:56 PM MDT
Moon 5:05 PM MDT (10/16) 4:49 AM MDT (10/16)
Length of Visible Light 11h 55m
Length of Day
10h 56m
Waxing Gibbous, 94% of the Moon is Illuminated
Oct 16
Waxing Gibbous
Oct 18
Full
Oct 26
Last Quarter
Nov 3
New
Nov 9
First Quarter

Hourly Weather History & Observations

Time (MDT) Temp. Windchill Dew Point Humidity Pressure Visibility Wind Dir Wind Speed Gust Speed Precip Events Conditions
12:53 AM 33.1 °F 26.9 °F 12.9 °F 43% 30.14 in 10.0 mi West 6.9 mph - N/A   Clear
1:53 AM 30.0 °F 24.1 °F 14.0 °F 51% 30.14 in 10.0 mi WSW 5.8 mph - N/A   Clear
2:53 AM 30.9 °F 27.5 °F 10.9 °F 43% 30.14 in 10.0 mi West 3.5 mph - N/A   Clear
3:53 AM 32.0 °F 28.7 °F 9.0 °F 38% 30.11 in 10.0 mi West 3.5 mph - N/A   Clear
4:53 AM 30.0 °F 23.2 °F 10.9 °F 45% 30.10 in 10.0 mi WSW 6.9 mph - N/A   Clear
5:53 AM 30.9 °F 24.3 °F 10.0 °F 42% 30.09 in 10.0 mi WSW 6.9 mph - N/A   Clear
6:53 AM 28.9 °F 19.8 °F 10.9 °F 47% 30.10 in 10.0 mi WSW 10.4 mph - N/A   Clear
7:53 AM 34.0 °F 28.0 °F 8.1 °F 34% 30.09 in 10.0 mi WSW 6.9 mph - N/A   Clear
8:53 AM 39.9 °F 35.8 °F 14.0 °F 35% 30.08 in 10.0 mi WSW 5.8 mph - N/A   Clear
9:53 AM 46.0 °F 44.8 °F 12.9 °F 26% 30.07 in 10.0 mi SSW 3.5 mph - N/A   Clear
10:53 AM 48.0 °F - 15.1 °F 27% 30.06 in 10.0 mi SSE 4.6 mph - N/A   Clear
11:53 AM 50.0 °F - 12.9 °F 23% 30.04 in 10.0 mi Variable 3.5 mph - N/A   Clear
12:53 PM 52.0 °F - 12.9 °F 21% 30.02 in 10.0 mi Variable 4.6 mph - N/A   Clear
1:53 PM 53.1 °F - 18.0 °F 25% 30.01 in 10.0 mi North 9.2 mph - N/A   Clear
2:53 PM 52.0 °F - 21.0 °F 30% 30.00 in 10.0 mi North 12.7 mph 26.5 mph N/A   Clear
3:53 PM 51.1 °F - 21.0 °F 31% 30.00 in 10.0 mi North 18.4 mph 24.2 mph N/A   Clear
4:53 PM 48.9 °F - 24.1 °F 38% 30.02 in 10.0 mi North 16.1 mph 25.3 mph N/A   Clear
5:53 PM 45.0 °F 38.9 °F 23.0 °F 42% 30.04 in 10.0 mi North 12.7 mph 25.3 mph N/A   Clear
6:53 PM 44.1 °F 35.0 °F 21.9 °F 42% 30.06 in 10.0 mi NNW 24.2 mph 29.9 mph N/A   Clear
7:53 PM 39.9 °F 29.7 °F 30.9 °F 70% 30.10 in 10.0 mi NNW 23.0 mph 32.2 mph N/A   Partly Cloudy
8:53 PM 37.9 °F 27.6 °F 32.0 °F 79% 30.09 in 10.0 mi NNW 20.7 mph 31.1 mph N/A   Clear
9:53 PM 37.0 °F 27.7 °F 30.9 °F 79% 30.07 in 10.0 mi NW 16.1 mph 25.3 mph N/A   Mostly Cloudy
10:53 PM 36.0 °F 24.2 °F 30.9 °F 82% 30.09 in 10.0 mi NNW 24.2 mph 33.4 mph N/A   Mostly Cloudy
10:59 PM 35.6 °F 23.7 °F 32.0 °F 87% 30.08 in 10.0 mi NNW 24.2 mph 33.4 mph N/A   Overcast
11:14 PM 35.6 °F 24.5 °F 32.0 °F 87% 30.08 in 10.0 mi NNW 20.7 mph 35.7 mph N/A   Overcast
11:53 PM 35.1 °F 22.7 °F 32.0 °F 89% 30.08 in 10.0 mi North 25.3 mph 35.7 mph N/A   Overcast